Location: Austin
(30.3000°N, 97.7500°W)
Time: 11:26:09
(UTC-05:00)

Cosmos 2237 Rocket - Pass Details

Date: 26 May 2023
Orbit: 836 x 848 km, 71.0° (Epoch: 31 May)

Event Time Altitude Azimuth Distance (km) Brightness Sun altitude
Exits shadow 22:45:22 51° 199° (SSW) 1,046 2.4 -25.3°
Maximum altitude 22:46:53 90° 262° (W) 840 2.1 -25.5°
Drops below altitude 10° 22:52:31 10° 20° (NNE) 2,450 4.9 -26.3°
Sets 22:54:57 0° 20° (NNE) 3,386 5.7 -26.7°
